Location: Dattensoll
(49.9928°N, 9.8954°E)
Time: 07:15:25
(UTC+00:00)

Cosmos 1356 Rocket - Pass Details

Date: 19 May 2025
Orbit: 517 x 565 km, 81.2° (Epoch: 22 June)

Event Time Altitude Azimuth Distance (km) Brightness Sun altitude
Exits shadow 20:28:30 14° 160° (SSE) 1,630 5.1 -10.8°
Maximum altitude 20:31:43 39° 95° (E) 852 3.9 -11.1°
Drops below altitude 10° 20:35:33 10° 26° (NNE) 1,861 6.4 -11.5°
Sets 20:37:49 0° 19° (NNE) 2,755 7.4 -11.7°
